STARLINK-35777, 66975

Orbit data source: Space-Track

STARLINK-35777, 66975 is a payload satellite owned by SpaceX/Seattle (US) in LEO that was launched on Mon, 08 Dec 2025 UTC via an FALCON 9 launch vehicle from the Air Force Eastern Test Range (AFETR). Payload-class satellites include a variety of spacecraft equipped with specific instruments for various scientific and technological missions. These include communications satellites like Starlink; space stations such as the ISS; scientific satellites like the Hubble; Earth observation satellites from companies like Planet Labs, Umbra, and HawkEye 360; GPS; miniature CubeSats for education and research; and military/defense satellites.

Loading next visibility...
Identifier
66975, 2025-288S
Orbit
LEO
Country
Flag of USUS
Related business
Manufacturer
SpaceX/Seattle
Mission
Operational Commercial Communications
Bus & Motor
STARLINK V2MO, Unknown motor
Mass
575 kg wet, ~530 kg dry
Launch date (UTC)
2025-12-08 (5 months ago)
Launch vehicle
FALCON 9
Launch site
Air Force Eastern Test Range (AFETR)
Object type
Payload
Rocket body
Debris
Shape & HBR
Box + 2 Pan, 17.7 m
Radar Cross Section
36.964 m²

Expand to show TLE details & history
Last TLE update: 9 hours ago

TLE from 9 hours ago
0 STARLINK-35777
1 66975U 25288S   26130.09435883  .00002006  00000-0  82434-4 0  9993
2 66975  43.0007  37.0867 0001399 275.4233  84.6459 15.27567343 24676
Epoch: 2026-05-10T02:15Z
TLE epoch observation values (Epoch: 2026-05-10T02:15:52.602Z)
Latitude
-0.00004°
Longitude
135.21511°
Altitude
482.773 km
Speed
7.626 km/s
True Right ascension
02h 28m 20s
True Declination
0° 00' 00"
Sunlit
Object was in daylight at epoch
Visualization orbit readout
Latitude
Unknown
Longitude
Unknown
Altitude
Unknown
Speed
Unknown
Apparent Right ascension
Unknown
Apparent Declination
Unknown
Sunlit
N/A
Visualization observer readout
Local Sidereal Time
19:48:25
Azimuth
Unknown
Elevation
Unknown
Doppler factor
Unknown
Orbital elements
Apogee altitude
485.992 km
Perigee altitude
484.072 km
Semi-major axis
6,863.169 km
Eccentricity
0.00014
Inclination
43.0007°
RAAN
37.0867°
Arg. of periapsis
275.4233°
True anomaly
84.66186°
Mean anomaly
84.6459°
Eccentric anomaly
84.65388°
Mean motion
3.8173 °/min
Orbital period
94.31 mins
BSTAR
0.000082434
Loading maneuver chart data...
Computing Atmospheric mass density...
Loading historical data...
Loading historical data...
Loading historical data...
Loading historical data...
Loading historical data...
Loading historical data...
Loading historical data...

Documentation

Showing up to 5 results
|